Auburn, CA

12:18 PM PST on November 13, 2019 (GMT -0800)
Auburn Municipal

Weather History for KAUN - September, 2019

Change the Weather History Date:

Thursday, September 12, 2019

  Actual Average Record
Temperature  
Mean Temperature 74 °F -  
Max Temperature 89 °F 85 °F 103 °F (1948)
Min Temperature 60 °F 57 °F 46 °F (1972)
Cooling Degree Days 10    
Growing Degree Days 24 (Base 50)    
Moisture  
Dew Point 44 °F    
Average Humidity 36    
Maximum Humidity 56    
Minimum Humidity 18    
Precipitation  
Precipitation 0.00 in - - ()
Sea Level Pressure  
Sea Level Pressure 30.06 in    
Wind  
Wind Speed 2 mph ()    
Max Wind Speed 8 mph    
Max Gust Speed 12 mph    
Visibility 9.9 miles    
Events      
Averages and records for this station are not official NWS values.
T = Trace of Precipitation, MM = Missing Value Source: Averaged Metar Reports

Daily Weather History Graph

Daily Weather History Graph

Search for Another Location

Airport or City:

Astronomy

Sep. 12, 2019 Rise Set
Actual Time 6:42 AM PDT 7:17 PM PDT
Civil Twilight 6:16 AM PDT 7:44 PM PDT
Nautical Twilight 5:44 AM PDT 8:16 PM PDT
Astronomical Twilight 5:11 AM PDT 8:48 PM PDT
Moon 7:03 PM PDT (9/12) 5:09 AM PDT (9/12)
Length of Visible Light 13h 28m
Length of Day
12h 34m
Waxing Gibbous, 98% of the Moon is Illuminated
Sep 12
Waxing Gibbous
Sep 13
Full
Sep 21
Last Quarter
Sep 28
New
Oct 5
First Quarter

Hourly Weather History & Observations

Time (PDT) Temp. Dew Point Humidity Pressure Visibility Wind Dir Wind Speed Gust Speed Precip Events Conditions
12:15 AM 64.4 °F 48.2 °F 56% 30.02 in 10.0 mi Calm Calm - N/A   Clear
12:35 AM 64.4 °F 48.2 °F 56% 30.02 in 10.0 mi Calm Calm - N/A   Clear
12:55 AM 66.2 °F 48.2 °F 52% 30.03 in 10.0 mi Calm Calm - N/A   Clear
1:15 AM 64.4 °F 48.2 °F 56% 30.03 in 10.0 mi Calm Calm - N/A   Clear
1:35 AM 64.4 °F 48.2 °F 56% 30.03 in 10.0 mi Calm Calm - N/A   Clear
1:55 AM 64.4 °F 48.2 °F 56% 30.04 in 10.0 mi East 6.9 mph - N/A   Clear
2:15 AM 64.4 °F 48.2 °F 56% 30.04 in 10.0 mi East 3.5 mph - N/A   Clear
2:35 AM 64.4 °F 46.4 °F 52% 30.04 in 10.0 mi East 6.9 mph - N/A   Clear
2:55 AM 64.4 °F 46.4 °F 52% 30.04 in 10.0 mi Calm Calm - N/A   Clear
3:15 AM 62.6 °F 46.4 °F 55% 30.04 in 10.0 mi East 6.9 mph - N/A   Clear
3:35 AM 64.4 °F 46.4 °F 52% 30.04 in 10.0 mi ESE 6.9 mph - N/A   Clear
3:55 AM 64.4 °F 46.4 °F 52% 30.05 in 10.0 mi ESE 8.1 mph - N/A   Clear
4:15 AM 64.4 °F 44.6 °F 49% 30.05 in 10.0 mi ESE 6.9 mph - N/A   Clear
4:35 AM 62.6 °F 44.6 °F 52% 30.05 in 10.0 mi ESE 5.8 mph - N/A   Clear
4:55 AM 62.6 °F 44.6 °F 52% 30.05 in 10.0 mi East 8.1 mph - N/A   Clear
5:15 AM 62.6 °F 44.6 °F 52% 30.05 in 10.0 mi Calm Calm - N/A   Clear
5:35 AM 60.8 °F 42.8 °F 52% 30.06 in 10.0 mi Calm Calm - N/A   Clear
5:55 AM 64.4 °F 42.8 °F 45% 30.06 in 10.0 mi East 6.9 mph - N/A   Clear
6:15 AM 62.6 °F 42.8 °F 48% 30.06 in 10.0 mi East 5.8 mph - N/A   Clear
6:35 AM 62.6 °F 41.0 °F 45% 30.06 in 10.0 mi ESE 5.8 mph - N/A   Clear
6:55 AM 62.6 °F 39.2 °F 42% 30.07 in 10.0 mi Calm Calm - N/A   Clear
7:15 AM 64.4 °F 39.2 °F 40% 30.07 in 10.0 mi East 5.8 mph - N/A   Clear
7:35 AM 66.2 °F 39.2 °F 37% 30.08 in 10.0 mi Calm Calm - N/A   Clear
7:55 AM 68.0 °F 39.2 °F 35% 30.09 in 10.0 mi East 6.9 mph - N/A   Clear
8:15 AM 69.8 °F 39.2 °F 33% 30.09 in 10.0 mi East 6.9 mph - N/A   Clear
8:35 AM 71.6 °F 39.2 °F 31% 30.09 in 10.0 mi East 5.8 mph - N/A   Clear
8:55 AM 73.4 °F 41.0 °F 31% 30.10 in 10.0 mi ESE 8.1 mph - N/A   Clear
9:15 AM 77.0 °F 41.0 °F 28% 30.10 in 10.0 mi Calm Calm - N/A   Clear
9:35 AM 78.8 °F 41.0 °F 26% 30.11 in 10.0 mi Calm Calm - N/A   Clear
9:55 AM 78.8 °F 41.0 °F 26% 30.11 in 10.0 mi Calm Calm - N/A   Clear
10:15 AM 80.6 °F 42.8 °F 26% 30.12 in 10.0 mi Calm Calm - N/A   Clear
10:35 AM 80.6 °F 42.8 °F 26% 30.12 in 10.0 mi ESE 4.6 mph - N/A   Clear
10:55 AM 82.4 °F 42.8 °F 25% 30.12 in 10.0 mi Calm Calm - N/A   Clear
11:15 AM 84.2 °F 42.8 °F 23% 30.12 in 10.0 mi Calm Calm - N/A   Clear
11:35 AM 84.2 °F 42.8 °F 23% 30.12 in 10.0 mi Calm Calm - N/A   Clear
11:55 AM 86.0 °F 44.6 °F 23% 30.11 in 10.0 mi Calm Calm - N/A   Clear
12:15 PM 86.0 °F 42.8 °F 22% 30.11 in 10.0 mi SW 4.6 mph - N/A   Clear
12:35 PM 86.0 °F 44.6 °F 23% 30.11 in 10.0 mi Variable 3.5 mph - N/A   Clear
12:55 PM 86.0 °F 44.6 °F 23% 30.11 in 9.0 mi West 4.6 mph - N/A   Clear
1:15 PM 87.8 °F 42.8 °F 21% 30.10 in 9.0 mi Calm Calm - N/A   Clear
1:35 PM 86.0 °F 44.6 °F 23% 30.10 in 10.0 mi WSW 3.5 mph - N/A   Clear
1:55 PM 87.8 °F 42.8 °F 21% 30.09 in 10.0 mi Variable 5.8 mph 11.5 mph N/A   Clear
2:15 PM 87.8 °F 44.6 °F 22% 30.09 in 10.0 mi SW 5.8 mph - N/A   Clear
2:35 PM 87.8 °F 42.8 °F 21% 30.08 in 10.0 mi Calm Calm - N/A   Clear
2:55 PM 87.8 °F 44.6 °F 22% 30.07 in 9.0 mi SSW 5.8 mph - N/A   Clear
3:15 PM 89.6 °F 42.8 °F 20% 30.07 in 9.0 mi Variable 4.6 mph 11.5 mph N/A   Clear
3:35 PM 87.8 °F 42.8 °F 21% 30.07 in 10.0 mi Calm Calm - N/A   Clear
3:55 PM 89.6 °F 42.8 °F 20% 30.06 in 10.0 mi SSW 5.8 mph - N/A   Clear
4:15 PM 89.6 °F 42.8 °F 20% 30.06 in 10.0 mi WSW 5.8 mph - N/A   Clear
4:55 PM 87.8 °F 42.8 °F 21% 30.05 in 10.0 mi Calm Calm - N/A   Clear
5:15 PM 89.6 °F 41.0 °F 18% 30.04 in 10.0 mi Calm Calm - N/A   Clear
5:35 PM 87.8 °F 42.8 °F 21% 30.03 in 10.0 mi Calm Calm - N/A   Clear
5:55 PM 87.8 °F 42.8 °F 21% 30.03 in 10.0 mi Calm Calm - N/A   Clear
6:15 PM 87.8 °F 42.8 °F 21% 30.03 in 10.0 mi Calm Calm - N/A   Clear
6:35 PM 86.0 °F 44.6 °F 23% 30.03 in 10.0 mi Calm Calm - N/A   Clear
6:55 PM 84.2 °F 46.4 °F 27% 30.03 in 10.0 mi Calm Calm - N/A   Clear
7:15 PM 80.6 °F 48.2 °F 32% 30.03 in 10.0 mi Calm Calm - N/A   Clear
7:35 PM 77.0 °F 48.2 °F 36% 30.03 in 10.0 mi Calm Calm - N/A   Clear
7:55 PM 73.4 °F 46.4 °F 38% 30.03 in 10.0 mi Calm Calm - N/A   Clear
8:15 PM 68.0 °F 46.4 °F 46% 30.03 in 10.0 mi Calm Calm - N/A   Clear
8:35 PM 68.0 °F 46.4 °F 46% 30.04 in 10.0 mi Calm Calm - N/A   Clear
8:55 PM 68.0 °F 46.4 °F 46% 30.04 in 10.0 mi Calm Calm - N/A   Clear
9:15 PM 68.0 °F 46.4 °F 46% 30.04 in 10.0 mi Calm Calm - N/A   Clear
9:35 PM 68.0 °F 46.4 °F 46% 30.04 in 9.0 mi Calm Calm - N/A   Clear
9:55 PM 66.2 °F 46.4 °F 49% 30.04 in 10.0 mi Calm Calm - N/A   Clear
10:15 PM 73.4 °F 44.6 °F 36% 30.05 in 10.0 mi Calm Calm - N/A   Clear
10:35 PM 73.4 °F 42.8 °F 33% 30.04 in 10.0 mi East 5.8 mph - N/A   Clear
10:55 PM 71.6 °F 41.0 °F 33% 30.04 in 10.0 mi Calm Calm - N/A   Clear
11:15 PM 73.4 °F 39.2 °F 29% 30.04 in 10.0 mi Calm Calm - N/A   Clear
11:35 PM 71.6 °F 39.2 °F 31% 30.04 in 10.0 mi East 6.9 mph - N/A   Clear
11:55 PM 71.6 °F 39.2 °F 31% 30.04 in 10.0 mi East 6.9 mph - N/A   Clear